• In Hungary
  • List of Countries
  • For 7 days
  • Water Temperature
  • Satellite Maps
  • Weather Map
  • News
  • Weather Widgets
  • user-avatar
    Login

    Hourly Weather Brčko

    Today, 16 October, Tuesday

    Time Temperature Precipitation Wind Pressure Humidity
    00:00 +14°C° 0 mm 1 mps 757 mmHg 61%
    01:00 +13°C° 0 mm 1 mps 757 mmHg 63%
    02:00 +13°C° 0 mm 1 mps 757 mmHg 64%
    03:00 +13°C° 0 mm 1 mps 757 mmHg 66%
    04:00 +13°C° 0 mm 1 mps 757 mmHg 67%
    05:00 +13°C° 0 mm 1 mps 757 mmHg 67%
    06:00 +13°C° 0 mm 1 mps 758 mmHg 67%
    07:00 +14°C° 0 mm 1 mps 758 mmHg 66%
    08:00 +16°C° 0 mm 1 mps 758 mmHg 58%
    09:00 +20°C° 0 mm 1 mps 758 mmHg 51%
    10:00 +22°C° 0 mm 1 mps 758 mmHg 43%
    11:00 +23°C° 0 mm 1 mps 758 mmHg 41%
    12:00 +25°C° 0 mm 1 mps 757 mmHg 38%
    13:00 +26°C° 0 mm 2 mps 757 mmHg 36%
    14:00 +25°C° 0 mm 2 mps 757 mmHg 38%
    15:00 +25°C° 0 mm 2 mps 757 mmHg 40%
    16:00 +24°C° 0 mm 1 mps 757 mmHg 41%
    17:00 +22°C° 0 mm 1 mps 757 mmHg 46%
    18:00 +20°C° 0 mm 1 mps 757 mmHg 50%
    19:00 +19°C° 0 mm 1 mps 757 mmHg 54%
    20:00 +18°C° 0 mm 1 mps 757 mmHg 55%
    21:00 +16°C° 0 mm 1 mps 757 mmHg 56%
    22:00 +16°C° 0 mm 1 mps 757 mmHg 58%
    23:00 +15°C° 0 mm 1 mps 757 mmHg 59%

    Tomorrow, 17 October, Wednesday

    Time Temperature Precipitation Wind Pressure Humidity
    00:00 +15°C° 0 mm 1 mps 757 mmHg 61%
    01:00 +14°C° 0 mm 1 mps 757 mmHg 62%
    02:00 +14°C° 0 mm 1 mps 757 mmHg 64%
    03:00 +13°C° 0 mm 1 mps 757 mmHg 66%
    04:00 +13°C° 0 mm 1 mps 757 mmHg 67%
    05:00 +13°C° 0 mm 1 mps 757 mmHg 67%
    06:00 +13°C° 0 mm 1 mps 757 mmHg 66%
    07:00 +14°C° 0 mm 1 mps 757 mmHg 65%
    08:00 +16°C° 0 mm 1 mps 757 mmHg 58%
    09:00 +20°C° 0 mm 1 mps 757 mmHg 50%
    10:00 +22°C° 0 mm 1 mps 756 mmHg 42%
    11:00 +23°C° 0 mm 2 mps 756 mmHg 39%
    12:00 +25°C° 0 mm 2 mps 756 mmHg 36%
    13:00 +26°C° 0 mm 3 mps 755 mmHg 33%
    14:00 +25°C° 0 mm 2 mps 755 mmHg 34%
    15:00 +25°C° 0 mm 2 mps 755 mmHg 35%
    16:00 +24°C° 0 mm 2 mps 754 mmHg 36%
    17:00 +21°C° 0 mm 2 mps 755 mmHg 40%
    18:00 +19°C° 0 mm 2 mps 755 mmHg 44%
    19:00 +18°C° 0 mm 1 mps 755 mmHg 48%
    20:00 +16°C° 0 mm 1 mps 755 mmHg 51%
    21:00 +16°C° 0 mm 1 mps 755 mmHg 53%
    22:00 +15°C° 0 mm 1 mps 755 mmHg 56%
    23:00 +15°C° 0 mm 1 mps 755 mmHg 59%

    Day after tomorrow, 18 October, Thursday

    Time Temperature Precipitation Wind Pressure Humidity
    00:00 +14°C° 0 mm 1 mps 755 mmHg 62%
    01:00 +14°C° 0 mm 1 mps 755 mmHg 65%
    02:00 +13°C° 0 mm 1 mps 755 mmHg 68%
    03:00 +13°C° 0 mm 1 mps 755 mmHg 70%
    04:00 +12°C° 0 mm 1 mps 755 mmHg 73%
    05:00 +13°C° 0 mm 1 mps 755 mmHg 72%
    06:00 +13°C° 0 mm 1 mps 755 mmHg 72%
    07:00 +13°C° 0 mm 1 mps 755 mmHg 71%
    08:00 +16°C° 0 mm 1 mps 755 mmHg 62%
    09:00 +19°C° 0 mm 1 mps 755 mmHg 53%
    10:00 +22°C° 0 mm 1 mps 754 mmHg 45%
    11:00 +23°C° 0 mm 1 mps 754 mmHg 42%
    12:00 +24°C° 0 mm 1 mps 754 mmHg 39%
    13:00 +25°C° 0 mm 2 mps 754 mmHg 36%
    14:00 +25°C° 0 mm 1 mps 753 mmHg 38%
    15:00 +24°C° 0 mm 1 mps 753 mmHg 40%
    16:00 +24°C° 0 mm 1 mps 753 mmHg 42%
    17:00 +22°C° 0 mm 1 mps 753 mmHg 46%
    18:00 +20°C° 0 mm 1 mps 754 mmHg 51%
    19:00 +16°C° 0 mm 0 mps 754 mmHg 56%
    20:00 +16°C° 0 mm 1 mps 754 mmHg 58%
    21:00 +16°C° 0 mm 1 mps 755 mmHg 60%
    22:00 +15°C° 0 mm 1 mps 755 mmHg 62%
    23:00 +15°C° 0 mm 1 mps 755 mmHg 64%

    19 October, Friday

    Time Temperature Precipitation Wind Pressure Humidity
    00:00 +15°C° 0 mm 1 mps 755 mmHg 65%
    01:00 +14°C° 0 mm 1 mps 755 mmHg 67%
    02:00 +14°C° 0 mm 1 mps 755 mmHg 68%
    03:00 +14°C° 0 mm 1 mps 755 mmHg 69%
    04:00 +14°C° 0 mm 1 mps 755 mmHg 71%
    05:00 +14°C° 0 mm 1 mps 755 mmHg 70%
    06:00 +14°C° 0 mm 1 mps 755 mmHg 69%
    07:00 +14°C° 0 mm 1 mps 756 mmHg 69%
    08:00 +16°C° 0 mm 1 mps 756 mmHg 62%
    09:00 +20°C° 0 mm 1 mps 756 mmHg 55%
    10:00 +21°C° 0 mm 2 mps 756 mmHg 48%
    11:00 +23°C° 0 mm 2 mps 756 mmHg 45%
    12:00 +23°C° 0 mm 2 mps 755 mmHg 43%
    13:00 +24°C° 0 mm 2 mps 755 mmHg 41%
    14:00 +24°C° 0 mm 2 mps 755 mmHg 43%
    15:00 +23°C° 0 mm 2 mps 755 mmHg 44%
    16:00 +23°C° 0 mm 2 mps 755 mmHg 46%
    17:00 +20°C° 0 mm 2 mps 756 mmHg 50%
    18:00 +20°C° 0 mm 1 mps 756 mmHg 54%
    19:00 +18°C° 0 mm 1 mps 756 mmHg 58%
    20:00 +18°C° 0 mm 1 mps 757 mmHg 59%
    21:00 +18°C° 0 mm 1 mps 757 mmHg 59%
    22:00 +16°C° 0 mm 1 mps 757 mmHg 60%
    23:00 +16°C° 0 mm 1 mps 757 mmHg 62%

    20 October, Saturday

    Time Temperature Precipitation Wind Pressure Humidity
    00:00 +15°C° 0 mm 1 mps 757 mmHg 65%
    01:00 +15°C° 0 mm 2 mps 757 mmHg 67%
    02:00 +14°C° 0 mm 2 mps 757 mmHg 69%
    03:00 +14°C° 0 mm 2 mps 757 mmHg 72%
    04:00 +13°C° 0 mm 2 mps 758 mmHg 74%
    05:00 +13°C° 0 mm 2 mps 758 mmHg 75%
    06:00 +13°C° 0 mm 2 mps 758 mmHg 76%
    07:00 +13°C° 0 mm 2 mps 758 mmHg 76%
    08:00 +15°C° 0 mm 2 mps 759 mmHg 68%
    09:00 +17°C° 0 mm 2 mps 759 mmHg 61%
    10:00 +19°C° 0 mm 2 mps 759 mmHg 53%
    11:00 +20°C° 0 mm 3 mps 759 mmHg 50%
    12:00 +21°C° 0 mm 3 mps 758 mmHg 47%
    13:00 +22°C° 0 mm 3 mps 758 mmHg 44%
    14:00 +21°C° 0 mm 3 mps 758 mmHg 46%
    15:00 +21°C° 0 mm 2 mps 758 mmHg 47%
    16:00 +21°C° 0 mm 2 mps 758 mmHg 49%
    17:00 +19°C° 0 mm 2 mps 758 mmHg 55%
    18:00 +18°C° 0 mm 1 mps 759 mmHg 61%
    19:00 +15°C° 0 mm 1 mps 759 mmHg 67%
    20:00 +15°C° 0 mm 1 mps 759 mmHg 67%
    21:00 +15°C° 0 mm 1 mps 759 mmHg 68%
    22:00 +15°C° 0 mm 1 mps 760 mmHg 68%
    23:00 +15°C° 0 mm 1 mps 760 mmHg 69%

    21 October, Sunday

    Time Temperature Precipitation Wind Pressure Humidity
    00:00 +15°C° 0 mm 1 mps 760 mmHg 69%
    01:00 +15°C° 0 mm 1 mps 760 mmHg 70%
    02:00 +14°C° 0 mm 1 mps 760 mmHg 71%
    03:00 +14°C° 0 mm 1 mps 760 mmHg 73%
    04:00 +14°C° 0 mm 1 mps 760 mmHg 74%
    05:00 +14°C° 0 mm 1 mps 760 mmHg 75%
    06:00 +14°C° 0 mm 1 mps 760 mmHg 75%
    07:00 +14°C° 0 mm 1 mps 761 mmHg 75%
    08:00 +15°C° 0 mm 1 mps 761 mmHg 69%
    09:00 +16°C° 0 mm 2 mps 761 mmHg 63%
    10:00 +18°C° 0 mm 2 mps 761 mmHg 57%
    11:00 +19°C° 0 mm 2 mps 761 mmHg 53%
    12:00 +20°C° 0 mm 3 mps 760 mmHg 49%
    13:00 +21°C° 0 mm 3 mps 760 mmHg 44%
    14:00 +20°C° 0 mm 3 mps 760 mmHg 45%
    15:00 +20°C° 0 mm 3 mps 760 mmHg 46%
    16:00 +19°C° 0 mm 2 mps 760 mmHg 47%
    17:00 +18°C° 0 mm 2 mps 760 mmHg 51%
    18:00 +17°C° 0 mm 2 mps 760 mmHg 55%
    19:00 +15°C° 0 mm 2 mps 760 mmHg 59%
    20:00 +15°C° 0 mm 2 mps 761 mmHg 61%
    21:00 +14°C° 0 mm 2 mps 761 mmHg 63%
    22:00 +13°C° 0 mm 2 mps 761 mmHg 65%
    23:00 +13°C° 0 mm 1 mps 761 mmHg 67%
    Show more